Home > Weather > Tangier > Past weeks

Flag for Morocco Weather for the Past 2 Weeks in Tangier, Morocco

Now
68 °F

Overcast.


Feels Like: 68 °F
Forecast: 59 / 69 °F
Wind: 12 mph from East

Location: Tanger Aerodrome

Current Time: May 5, 2016 at 11:29:38 AM

Latest Report: May 5, 2016 at 11:00 AM


Visibility: 5 mi

Pressure: 29.89 "Hg

Humidity: 73%

Dew Point: 59 °F

Location of TangierLocation

Historic Weather in Tangier — Graph

°F

Tangier Temperature Yesterday

Maximum temperature yesterday: 73 °F (at 1:00 PM)
Minimum temperature yesterday: 64 °F (at 12:30 AM)
Average temperature yesterday: 68 °F

High & Low Weather Summary for the Past Weeks

 TemperatureHumidityPressure
High79 °F (May 3, 3:00 PM)94% (Apr 21, 12:00 AM)30.18 "Hg (Apr 21, 12:00 AM)
Low48 °F (Apr 23, 7:00 AM)28% (May 3, 2:00 PM)29.83 "Hg (May 5, 6:00 AM)
Average64 °F69%29.99 "Hg
* Reported Apr 20 10:00 AM — May 5 10:00 AM, Tangier, Weather by CustomWeather, © 2016

Note: Actual official high and low records may vary slightly from our data, if they occured in-between our weather recording intervals... More about our weather records

Advertising

Tangier Weather History for the Previous 24 Hours

Scroll right to see more
 ConditionsComfort  
Time TempWeatherWind HumidityBarometerVisibility
10:00 AM
Thu, May 5
68 °FPartly sunny.13 mph73%29.89 "Hg5 mi
9:30 AM68 °FScattered clouds.12 mph73%29.86 "Hg5 mi
9:00 AM66 °FScattered clouds.9 mph78%29.86 "Hg4 mi
8:30 AM64 °FScattered clouds.12 mph78%29.83 "Hg4 mi
8:00 AM63 °FPartly sunny.12 mph83%29.83 "Hg4 mi
7:30 AM63 °FBroken clouds.13 mph83%29.83 "Hg4 mi
7:00 AM63 °FBroken clouds.12 mph83%29.83 "Hg4 mi
6:30 AM63 °FBroken clouds.13 mph83%29.83 "Hg4 mi
6:00 AM63 °FLight rain. Partly cloudy.13 mph83%29.83 "Hg3 mi
5:30 AM63 °FLight rain. Partly cloudy.8 mph83%29.86 "Hg3 mi
5:00 AM63 °FLight rain. Partly cloudy.9 mph83%29.86 "Hg3 mi
4:30 AM63 °FPassing clouds.10 mph83%29.89 "HgN/A
4:00 AM63 °FPassing clouds.13 mph77%29.86 "Hg5 mi
3:30 AM64 °FMild.17 mph73%29.86 "HgN/A
3:00 AM64 °FPassing clouds.14 mph73%29.86 "HgN/A
2:30 AM64 °FPassing clouds.15 mph73%29.86 "HgN/A
2:00 AM64 °FPassing clouds.18 mph73%29.86 "Hg5 mi
1:30 AM64 °FPassing clouds.21 mph68%29.89 "Hg5 mi
1:00 AM64 °FPassing clouds.20 mph73%29.92 "Hg5 mi
12:30 AM64 °FPassing clouds.22 mph68%29.92 "Hg5 mi
12:00 AM64 °FPartly cloudy.18 mph68%29.89 "Hg5 mi
11:30 PM
Wed, May 4
64 °FPartly cloudy.16 mph68%29.92 "Hg5 mi
11:00 PM64 °FPartly cloudy.20 mph68%29.92 "Hg5 mi
10:30 PM64 °FPartly cloudy.18 mph68%29.92 "Hg5 mi
10:00 PM64 °FPartly cloudy.17 mph68%29.92 "Hg5 mi
9:30 PM66 °FPartly cloudy.16 mph60%29.92 "Hg5 mi
9:00 PM66 °FPartly cloudy.15 mph64%29.92 "Hg5 mi
8:30 PM66 °FPartly cloudy.10 mph64%29.92 "Hg5 mi
8:00 PM66 °FBroken clouds.10 mph68%29.92 "Hg5 mi
7:30 PM66 °FBroken clouds.14 mph68%29.95 "Hg5 mi
7:00 PM66 °FBroken clouds.9 mph68%29.98 "Hg5 mi
6:30 PM68 °FBroken clouds.14 mph64%29.98 "Hg5 mi
6:00 PM68 °FBroken clouds.15 mph60%29.98 "Hg5 mi
5:30 PM68 °FBroken clouds.13 mph64%29.98 "Hg5 mi
5:00 PM68 °FBroken clouds.15 mph64%29.98 "Hg5 mi
4:30 PM68 °FBroken clouds.12 mph69%30.01 "Hg5 mi
4:00 PM72 °FBroken clouds.15 mph53%29.98 "Hg5 mi
3:30 PM72 °FBroken clouds.18 mph53%29.98 "Hg5 mi
3:00 PM72 °FBroken clouds.20 mph53%29.95 "Hg5 mi
2:30 PM72 °FBroken clouds.24 mph53%29.95 "Hg5 mi
2:00 PM73 °FBroken clouds.24 mph50%29.95 "Hg5 mi
1:30 PM73 °FBroken clouds.21 mph50%29.95 "Hg5 mi
1:00 PM73 °FBroken clouds.21 mph50%29.95 "Hg5 mi
12:30 PM72 °FBroken clouds.20 mph50%29.95 "Hg5 mi
12:00 PM72 °FBroken clouds.22 mph47%29.95 "Hg5 mi
11:30 AM72 °FBroken clouds.20 mph47%29.98 "Hg5 mi
11:00 AM72 °FBroken clouds.22 mph47%29.95 "Hg5 mi
Weather by CustomWeather, © 2016

See weather overviewHow to use our weather pages